KD6VEX-1 Weather Reports


Display with metric or nautical units.
time (UTC)temp
F
wind
direction
speed
MPH
gust
MPH
rain 1hr
in
rain 24hr
in
rain mn
in
humidity
%
barometer
mb
20260504151001 48 0 0.0 1.0 0.00 0.00 0.00 88 1015.7
20260504141001 42 0 0.0 0.0 0.00 0.00 0.00 93 1015.6
20260504140501 42 0 0.0 0.0 0.00 0.00 0.00 93 1015.6
20260504130501 42 0 0.0 0.0 0.00 0.00 0.00 91 1015.2
20260504110501 44 0 0.0 0.0 0.00 0.00 0.00 90 1015.2
20260504100502 45 0 0.0 0.0 0.00 0.00 0.00 91 1015.1
20260504082002 48 0 0.0 0.0 0.00 0.00 0.00 89 1015.6
20260504081501 48 0 0.0 0.0 0.00 0.00 0.00 90 1015.7
20260504081001 48 0 0.0 0.0 0.00 0.00 0.00 89 1016.0
20260504080501 48 0 0.0 0.0 0.00 0.00 0.00 89 1015.9
20260504050501 56 0 0.0 1.0 0.00 0.00 0.00 72 1015.7
20260504050001 56 0 0.0 1.0 0.00 0.00 0.00 72 1015.6
20260504045501 56 0 0.0 1.0 0.00 0.00 0.00 71 1015.6
20260504045001 56 0 0.0 1.0 0.00 0.00 0.00 71 1015.7
20260504044501 57 0 0.0 1.0 0.00 0.00 0.00 71 1015.7
20260504044001 57 0 0.0 2.0 0.00 0.00 0.00 71 1015.6
20260504043501 57 0 0.0 2.0 0.00 0.00 0.00 70 1015.6
20260504043001 57 0 0.0 2.0 0.00 0.00 0.00 70 1015.5
20260504042501 57 0 0.0 2.0 0.00 0.00 0.00 69 1015.4
20260504042001 57 0 0.0 1.0 0.00 0.00 0.00 69 1015.2
20260504041501 57 0 0.0 1.0 0.00 0.00 0.00 69 1015.1
20260504041001 57 0 0.0 1.0 0.00 0.00 0.00 68 1015.0
20260504040501 57 0 0.0 1.0 0.00 0.00 0.00 68 1014.8
20260504040001 57 0 0.0 1.0 0.00 0.00 0.00 68 1014.9
20260504035501 57 0 0.0 1.0 0.00 0.00 0.00 67 1014.8
20260504035001 58 0 0.0 1.0 0.00 0.00 0.00 67 1014.8
20260504034501 58 0 0.0 1.0 0.00 0.00 0.00 66 1014.6
20260504034001 58 0 0.0 2.0 0.00 0.00 0.00 66 1014.4
20260504033501 58 0 0.0 3.0 0.00 0.00 0.00 66 1014.2
20260504033001 58 0 0.0 3.0 0.00 0.00 0.00 65 1014.3
20260504032501 58 0 0.0 3.0 0.00 0.00 0.00 66 1014.3
20260504032001 58 0 0.0 3.0 0.00 0.00 0.00 65 1014.4
20260504031501 59 0 0.0 3.0 0.00 0.00 0.00 64 1014.3
20260504031001 59 0 0.0 1.0 0.00 0.00 0.00 63 1014.2
20260504030501 59 0 0.0 3.0 0.00 0.00 0.00 62 1014.1
20260504030001 59 0 0.0 3.0 0.00 0.00 0.00 61 1014.1
20260504025501 59 0 0.0 3.0 0.00 0.00 0.00 61 1014.0
20260504025001 59 0 0.0 3.0 0.00 0.00 0.00 60 1013.9
20260504024502 60 0 0.0 4.0 0.00 0.00 0.00 59 1013.9
20260504024001 60 0 0.0 4.0 0.00 0.00 0.00 58 1013.9
20260504023501 60 101 1.0 4.0 0.00 0.00 0.00 58 1013.9
20260504023001 60 0 0.0 4.0 0.00 0.00 0.00 58 1013.7
20260504022501 60 95 1.0 8.0 0.00 0.00 0.00 59 1013.8
20260504022001 60 0 0.0 8.0 0.00 0.00 0.00 61 1013.8
20260504021501 61 116 1.0 5.0 0.00 0.00 0.00 61 1013.7
20260504021001 61 69 1.0 5.0 0.00 0.00 0.00 60 1013.7
20260504020501 61 77 1.0 5.0 0.00 0.00 0.00 62 1013.4
20260504020001 61 0 0.0 5.0 0.00 0.00 0.00 61 1013.4
20260504015501 61 0 0.0 5.0 0.00 0.00 0.00 61 1013.4
20260504015001 61 41 1.0 6.0 0.00 0.00 0.00 61 1013.4
20260504014501 61 92 2.0 6.0 0.00 0.00 0.00 59 1013.6
20260504014001 62 93 1.0 6.0 0.00 0.00 0.00 59 1013.5
20260504013501 62 43 1.0 5.0 0.00 0.00 0.00 59 1013.1
20260504013002 62 118 1.0 5.0 0.00 0.00 0.00 58 1013.1
20260504012501 62 0 0.0 7.0 0.00 0.00 0.00 58 1013.0
20260504012001 62 105 1.0 7.0 0.00 0.00 0.00 57 1013.2
20260504011501 62 0 0.0 8.0 0.00 0.00 0.00 57 1013.2
20260504011001 62 104 2.0 8.0 0.00 0.00 0.00 56 1013.1
20260504010501 62 94 1.0 4.0 0.00 0.00 0.00 56 1013.1
20260504010001 62 120 1.0 5.0 0.00 0.00 0.00 56 1013.1
20260504005501 62 139 1.0 5.0 0.00 0.00 0.00 56 1013.2
20260504005001 62 122 1.0 4.0 0.00 0.00 0.00 55 1013.2
20260504004504 62 0 0.0 6.0 0.00 0.00 0.00 55 1013.2
20260504004001 63 105 1.0 6.0 0.00 0.00 0.00 54 1013.2
20260504003501 63 90 1.0 6.0 0.00 0.00 0.00 54 1013.1
20260504002851 63 122 1.0 9.0 0.00 0.00 0.00 53 1013.0
20260504002351 63 76 1.0 9.0 0.00 0.00 0.00 54 1012.9
20260504001851 64 99 1.0 6.0 0.00 0.00 0.00 54 1012.9
20260504001351 64 125 1.0 6.0 0.00 0.00 0.00 53 1012.9
20260504000851 64 114 1.0 5.0 0.00 0.00 0.00 54 1012.9
20260504000353 65 132 1.0 5.0 0.00 0.00 0.00 54 1012.9
20260503235851 65 107 1.0 4.0 0.00 0.00 0.00 54 1012.8
20260503235351 65 0 0.0 5.0 0.00 0.00 0.00 55 1012.7
20260503234851 66 0 0.0 5.0 0.00 0.00 0.00 55 1012.6
20260503234351 66 0 0.0 5.0 0.00 0.00 0.00 55 1012.6
20260503233851 66 0 0.0 5.0 0.00 0.00 0.00 55 1012.6
20260503233351 66 107 1.0 4.0 0.00 0.00 0.00 54 1012.6
20260503232851 66 48 1.0 4.0 0.00 0.00 0.00 54 1012.4
20260503232351 66 0 0.0 5.0 0.00 0.00 0.00 54 1012.4
20260503231851 67 33 1.0 5.0 0.00 0.00 0.00 53 1012.5
20260503231351 67 46 2.0 5.0 0.00 0.00 0.00 54 1012.5
20260503230851 67 0 0.0 5.0 0.00 0.00 0.00 55 1012.6
20260503230351 68 0 0.0 5.0 0.00 0.00 0.00 53 1012.5
20260503225851 68 0 0.0 5.0 0.00 0.00 0.00 53 1012.5
20260503225351 68 0 0.0 3.0 0.00 0.00 0.00 52 1012.6
20260503224851 68 0 0.0 2.0 0.00 0.00 0.00 53 1012.7
20260503224351 68 0 0.0 3.0 0.00 0.00 0.00 54 1012.7
20260503223851 68 2 1.0 4.0 0.00 0.00 0.00 54 1012.8
20260503223351 67 0 0.0 4.0 0.00 0.00 0.00 55 1012.8
20260503222851 67 0 0.0 3.0 0.00 0.00 0.00 54 1012.7
20260503222351 67 40 1.0 3.0 0.00 0.00 0.00 54 1012.9
20260503221851 68 0 0.0 3.0 0.00 0.00 0.00 54 1013.0
20260503221351 68 50 1.0 2.0 0.00 0.00 0.00 55 1013.1
20260503220851 68 0 0.0 3.0 0.00 0.00 0.00 54 1013.2
20260503220351 68 0 0.0 3.0 0.00 0.00 0.00 54 1013.2
20260503215851 68 0 0.0 2.0 0.00 0.00 0.00 55 1013.3
20260503215351 68 0 0.0 2.0 0.00 0.00 0.00 55 1013.3
20260503214851 67 0 0.0 3.0 0.00 0.00 0.00 55 1013.3
20260503214351 67 0 0.0 3.0 0.00 0.00 0.00 56 1013.3
20260503213851 68 0 0.0 3.0 0.00 0.00 0.00 53 1013.3
20260503213354 68 0 0.0 4.0 0.00 0.00 0.00 53 1013.3
20260503212851 68 0 0.0 4.0 0.00 0.00 0.00 53 1013.3
20260503212351 68 31 1.0 3.0 0.00 0.00 0.00 53 1013.3
20260503211851 68 0 0.0 5.0 0.00 0.00 0.00 53 1013.3
20260503211351 69 89 1.0 5.0 0.00 0.00 0.00 53 1013.3
20260503210851 69 83 1.0 5.0 0.00 0.00 0.00 52 1013.4
20260503210352 68 63 1.0 6.0 0.00 0.00 0.00 54 1013.5
20260503205852 68 37 1.0 6.0 0.00 0.00 0.00 55 1013.6
20260503205351 68 47 1.0 3.0 0.00 0.00 0.00 54 1013.6
20260503204851 67 0 0.0 2.0 0.00 0.00 0.00 54 1013.7
20260503204351 67 0 0.0 3.0 0.00 0.00 0.00 54 1013.7
20260503203851 67 104 1.0 4.0 0.00 0.00 0.00 55 1013.9
20260503203351 67 34 1.0 4.0 0.00 0.00 0.00 55 1013.9
20260503202851 67 47 2.0 4.0 0.00 0.00 0.00 54 1013.9
20260503202351 66 0 0.0 3.0 0.00 0.00 0.00 56 1013.9
20260503201851 66 4 1.0 3.0 0.00 0.00 0.00 56 1013.9
20260503201630 65 0 0.0 2.0 0.00 0.00 0.00 59 1014.0
20260503201351 65 0 0.0 2.0 0.00 0.00 0.00 59 1014.0
20260503200352 64 0 0.0 3.0 0.00 0.00 0.00 58 1014.0
20260503195851 64 55 1.0 3.0 0.00 0.00 0.00 60 1014.1
20260503195351 63 0 0.0 3.0 0.00 0.00 0.00 61 1014.2
20260503194851 63 0 0.0 2.0 0.00 0.00 0.00 62 1014.2
20260503194352 63 0 0.0 3.0 0.00 0.00 0.00 61 1014.3
20260503193852 62 0 0.0 4.0 0.00 0.00 0.00 61 1014.3
20260503193351 62 0 0.0 4.0 0.00 0.00 0.00 62 1014.3
20260503192851 62 0 0.0 2.0 0.00 0.00 0.00 63 1014.3
20260503192351 62 0 0.0 3.0 0.00 0.00 0.00 62 1014.4
20260503191851 62 0 0.0 3.0 0.00 0.00 0.00 63 1014.5
20260503191351 63 0 0.0 2.0 0.00 0.00 0.00 64 1014.5
20260503190851 62 0 0.0 2.0 0.00 0.00 0.00 66 1014.6
20260503190351 62 0 0.0 2.0 0.00 0.00 0.00 65 1014.6
20260503185851 61 0 0.0 3.0 0.00 0.00 0.00 68 1014.6
20260503185351 61 0 0.0 3.0 0.00 0.00 0.00 68 1014.8
20260503184851 61 0 0.0 3.0 0.00 0.00 0.00 68 1014.8
20260503184351 61 0 0.0 4.0 0.00 0.00 0.00 68 1014.7
20260503183351 60 0 0.0 5.0 0.00 0.00 0.00 68 1014.8
20260503182851 60 0 0.0 3.0 0.00 0.00 0.00 69 1014.7
20260503182351 60 0 0.0 2.0 0.00 0.00 0.00 70 1014.8
20260503181851 60 0 0.0 3.0 0.00 0.00 0.00 71 1014.8
20260503181351 59 0 0.0 3.0 0.00 0.00 0.00 71 1014.8
20260503180851 59 313 1.0 4.0 0.00 0.00 0.00 72 1014.8
20260503175851 58 0 0.0 3.0 0.00 0.00 0.00 74 1014.8
20260503175351 58 0 0.0 3.0 0.00 0.00 0.00 75 1014.7
20260503174851 58 101 1.0 3.0 0.00 0.00 0.00 75 1014.7
20260503174351 57 0 0.0 3.0 0.00 0.00 0.00 76 1014.8
20260503173851 57 0 0.0 3.0 0.00 0.00 0.00 76 1014.8
20260503173351 57 0 0.0 4.0 0.00 0.00 0.00 77 1014.8
20260503172852 57 0 0.0 4.0 0.00 0.00 0.00 77 1014.8
20260503172351 57 0 0.0 3.0 0.00 0.00 0.00 77 1014.8
20260503171851 57 0 0.0 3.0 0.00 0.00 0.00 78 1014.7
20260503171351 57 0 0.0 2.0 0.00 0.00 0.00 78 1014.7
20260503170851 57 0 0.0 2.0 0.00 0.00 0.00 78 1014.6
20260503170351 57 0 0.0 2.0 0.00 0.00 0.00 78 1014.5